GFSMW_con_lsi_336.txt.gz
Lid_Strength_Index
4 3 2 2 2 2 2 1 2 1 1 1 2 2 2 2 1 1 1 0 0 -0 0 0 1 1 2 2 1 1 2 2 2 2 2 2 2 2 1 1 1 1 -0
5 4 3 2 2 2 2 2 1 1 1 1 1 1 1 1 2 2 2 1 1 0 0 1 1 2 1 1 1 1 2 2 2 3 3 6 3 3 2 2 1 1 -0
5 4 4 3 2 2 2 2 1 1 1 1 1 1 1 1 1 1 1 1 1 1 0 1 1 1 2 1 1 1 2 3 2 2 3 6 7 5 4 3 1 1 1
5 4 4 4 3 2 1 1 1 1 1 0 1 2 2 3 2 1 1 1 1 0 -0 0 0 0 1 1 1 1 2 3 3 4 2 3 4 6 6 3 3 3 2
5 5 4 3 2 2 2 1 1 1 1 1 1 2 2 2 1 1 2 2 1 -0 0 1 2 2 2 1 1 1 3 2 3 3 4 4 5 4 5 6 4 5 4
5 4 4 4 3 3 2 2 2 2 1 1 1 1 2 2 2 2 2 2 2 2 1 0 2 1 1 1 1 1 2 2 2 2 3 4 5 6 5 5 5 5 5
5 4 4 4 4 4 3 2 2 2 1 1 1 2 2 1 2 2 2 2 3 2 2 1 1 1 1 1 2 2 2 2 3 3 3 3 4 4 4 4 5 4 5
6 6 5 5 5 4 4 3 3 3 3 2 2 2 2 2 1 1 1 1 2 2 2 2 2 1 1 1 2 2 3 3 3 2 3 2 3 3 3 4 5 6 6
6 6 5 5 5 5 5 4 3 4 3 3 2 3 3 2 2 1 1 1 1 1 1 2 2 1 2 2 3 3 3 3 3 3 3 2 3 3 3 3 4 5 6
6 6 5 5 5 6 6 4 4 4 3 3 2 2 2 2 1 1 1 1 1 1 1 1 2 2 2 2 2 2 2 3 3 4 5 6 6 6 6 6 6 5 5
8 6 6 5 5 6 6 5 4 4 3 3 2 2 2 1 1 1 1 1 1 1 1 2 3 5 5 5 4 3 3 4 5 5 6 6 6 8 8 8 8 8 7
7 6 6 7 7 6 6 4 4 3 3 2 2 2 2 2 2 2 1 1 3 4 4 4 5 5 5 4 4 5 6 6 7 7 8 9 9 9 9 9 10 10 10
8 8 8 7 6 6 5 4 3 2 2 2 2 3 3 2 2 4 5 5 6 6 5 5 5 5 4 4 5 6 7 8 9 9 9 9 10 11 11 10 11 11 11
8 7 7 7 7 6 4 3 2 2 2 2 3 3 4 3 4 5 7 7 7 7 7 6 5 5 4 3 4 5 7 7 8 8 9 10 10 10 11 11 11 11 11
7 7 7 6 6 4 3 3 2 2 2 4 4 3 3 4 6 7 7 7 8 7 7 7 7 7 6 4 4 5 5 8 9 10 9 9 9 8 9 10 11 11 12
7 6 5 5 5 3 3 2 2 3 3 4 4 2 3 5 6 7 8 8 8 9 9 9 8 8 7 6 5 6 7 9 10 11 11 11 10 10 8 8 9 9 9
6 5 5 5 3 3 3 3 3 3 5 4 3 4 5 5 7 8 8 9 8 7 8 8 9 9 8 8 7 7 9 10 11 12 12 12 11 11 10 9 8 8 7
5 5 4 4 3 4 3 2 4 5 5 4 6 6 6 6 6 7 7 7 7 8 8 8 8 9 8 8 8 9 9 10 11 11 11 11 10 8 9 9 9 8 8
5 4 4 3 3 3 3 3 4 5 5 7 7 7 6 6 4 6 6 6 8 9 9 9 9 9 8 7 8 9 9 10 10 9 9 9 9 8 9 9 9 9 8
4 4 3 3 2 4 3 4 5 5 7 7 7 7 6 6 5 7 8 8 8 9 9 9 10 8 8 7 7 7 8 9 9 8 8 8 7 8 8 9 9 8 7
4 4 4 4 4 4 3 4 5 6 6 7 7 7 7 7 7 6 6 8 9 10 10 9 9 8 8 7 7 7 7 8 9 9 9 8 8 8 7 7 7 7 6
5 5 5 5 4 3 2 5 6 6 6 7 7 8 8 8 8 8 8 8 9 9 9 9 8 8 8 7 7 7 7 7 8 9 8 8 8 8 8 7 7 7 6
4 4 5 4 3 2 2 6 6 6 7 7 8 8 8 9 9 9 9 9 9 9 9 8 8 8 7 7 7 8 8 7 8 7 7 8 8 8 7 6 6 6 5
5 4 4 5 5 3 5 5 5 7 8 8 8 8 8 9 9 9 9 9 9 8 8 8 8 8 8 8 7 6 8 8 8 8 8 7 7 7 6 6 5 5 5
5 4 5 5 6 4 4 4 5 7 7 7 7 7 7 8 9 9 8 8 7 9 8 8 8 9 8 8 9 9 8 8 8 8 8 7 7 7 7 6 6 6 6
5 5 6 6 5 4 4 4 5 6 7 7 7 7 7 7 8 8 8 8 8 8 8 9 9 6 9 9 9 9 9 9 9 8 8 8 8 8 7 7 7 6 6

GFSMW_con_lsi_339.txt.gz
Lid_Strength_Index
3 2 2 1 1 1 1 0 0 0 0 0 1 0 1 0 0 -0 -1 -1 -1 -1 -1 -0 -0 -0 1 0 0 1 1 2 1 2 2 2 1 1 0 0 0 0 -0
4 3 2 2 1 1 1 0 0 -0 -0 -0 0 -0 0 0 -0 -0 -1 -1 -0 -0 -0 -0 0 0 1 1 1 1 2 2 1 3 3 5 4 2 1 1 1 0 -0
4 3 3 2 1 1 1 0 0 -0 -0 -0 -0 -0 -0 -0 0 0 0 -0 -1 -1 -1 -0 -0 0 0 1 1 1 2 3 1 1 3 6 6 4 1 1 1 -0 0
4 3 3 2 2 1 0 0 0 -0 -0 -1 -0 0 1 2 1 1 0 -0 -1 -1 -1 -0 -0 0 0 1 1 0 1 1 3 2 2 2 3 5 6 2 1 0 0
3 3 3 2 1 1 1 0 -0 -0 -0 -0 -0 1 1 1 1 0 0 0 -0 -1 -1 -1 -0 -0 0 0 0 1 1 1 2 3 3 3 4 3 4 6 4 4 4
3 3 2 2 2 2 2 0 0 0 -0 -0 -0 0 1 1 1 1 1 1 0 0 -0 -1 -0 -0 0 0 1 1 1 1 2 2 2 3 4 4 4 5 4 5 4
3 3 3 3 3 3 3 2 1 1 0 0 0 0 0 0 1 1 1 1 1 1 0 -0 -0 0 -0 0 0 1 1 1 2 2 2 2 3 3 3 3 4 5 5
4 4 3 4 4 3 3 2 1 1 0 0 0 -0 -0 1 1 0 1 1 1 0 -0 -0 -0 -0 -0 0 1 1 1 2 2 2 2 2 2 2 2 3 3 5 4
4 5 5 4 4 3 3 1 1 1 0 0 0 0 0 0 0 0 0 0 0 0 -0 -0 -0 -0 -0 -0 1 1 2 2 2 3 2 3 2 2 2 2 3 4 6
6 5 5 5 4 3 2 1 1 1 0 0 0 0 0 0 0 0 1 1 1 1 1 1 1 2 2 0 -0 1 1 1 2 4 5 5 5 5 5 4 3 2 2
6 5 5 4 3 2 2 1 1 1 1 0 0 0 0 1 1 3 4 4 4 4 3 3 3 3 3 3 2 2 3 4 4 5 5 6 6 6 6 5 5 4 3
5 5 4 3 2 2 1 1 1 1 1 0 0 1 2 3 4 4 5 5 5 5 5 4 4 3 3 4 4 6 6 7 8 8 8 8 8 9 8 7 7 6 5
4 4 3 2 2 2 1 1 1 1 1 1 2 3 3 4 5 5 5 6 6 6 5 5 5 5 4 4 4 4 6 4 7 8 9 9 9 10 9 9 8 8 7
4 3 3 2 2 2 2 1 1 1 2 2 3 3 4 5 6 6 6 7 7 7 7 6 6 5 5 4 4 5 5 6 7 8 8 8 9 10 10 9 9 8 9
4 4 3 3 2 2 2 2 1 2 2 2 2 3 5 5 6 7 7 7 7 7 6 6 5 6 6 5 6 7 7 8 9 9 9 8 7 7 8 9 9 9 9
4 4 3 3 3 3 2 2 1 2 3 3 3 4 5 6 6 6 4 4 5 5 5 5 5 6 7 7 7 8 9 9 9 9 9 9 9 8 8 8 8 8 8
4 4 3 3 2 2 1 2 2 3 4 4 5 4 3 5 5 5 5 5 5 5 5 5 6 6 6 8 8 8 8 8 8 8 8 9 9 9 9 8 8 8 7
4 3 3 3 2 1 1 2 3 4 5 5 4 3 3 5 5 5 7 6 6 6 6 6 6 6 6 7 8 8 7 7 8 8 8 7 8 8 6 6 6 6 5
3 3 3 3 2 1 1 3 4 5 5 4 3 4 4 5 6 7 6 5 6 6 6 5 6 6 6 7 7 7 7 8 8 7 7 6 6 7 8 7 7 7 6
3 3 3 2 1 1 1 4 6 4 5 5 5 5 5 6 6 6 5 5 5 6 6 6 6 6 6 7 7 6 6 7 7 6 5 7 7 7 8 6 7 7 6
2 3 4 3 2 2 3 5 4 4 4 5 6 5 4 5 6 5 5 5 6 6 6 6 6 6 6 6 7 7 5 6 6 6 7 6 7 7 7 7 6 6 6
4 4 4 4 3 2 3 3 4 4 5 5 5 5 5 5 5 5 6 6 6 6 7 7 6 5 5 7 7 8 7 6 6 7 6 6 8 7 7 6 7 6 6
6 4 4 3 3 2 1 3 4 4 5 5 5 5 5 5 5 6 6 6 6 7 7 7 7 7 6 6 7 8 8 7 6 7 7 7 7 6 5 6 6 5 5
5 3 3 3 4 2 2 3 4 5 5 6 6 5 5 5 5 4 5 6 7 7 7 7 7 7 7 7 7 6 6 7 6 6 5 6 6 6 5 5 5 5 5
4 3 4 4 3 2 2 3 4 5 6 5 6 5 5 5 5 5 5 6 7 8 8 7 7 8 8 8 9 8 7 6 7 5 4 5 5 5 5 5 5 5 5
4 4 4 2 2 2 2 2 3 4 5 6 6 6 6 6 6 5 4 7 8 9 10 10 8 5 9 9 9 9 9 9 8 5 6 6 5 5 5 5 6 6 6

GFSMW_con_lsi_342.txt.gz
Lid_Strength_Index
3 2 1 1 0 0 -0 -0 -0 -1 -0 0 0 0 1 -0 -0 -1 -2 -1 -1 -1 -0 -0 0 -0 0 0 -0 1 1 1 1 1 2 1 1 1 1 0 0 0 -0
3 2 1 1 1 0 -0 -0 -0 -1 -1 -0 -1 -0 -0 -0 -1 -1 -1 -2 -2 -1 -0 0 0 0 0 0 1 1 2 1 1 3 3 5 3 1 1 1 1 1 -0
4 3 2 1 1 1 0 -0 -1 -1 -1 -1 -1 -1 -1 -0 0 -0 -0 -1 -1 -1 -1 -1 -1 -0 -0 1 1 0 1 2 1 1 3 5 7 4 2 2 1 1 0
3 3 2 2 1 1 0 -0 -1 -1 -1 -1 -1 -0 1 1 0 0 -0 -1 -1 -1 -1 -1 -1 -0 0 1 1 1 1 1 2 2 2 2 2 5 6 3 2 1 1
3 3 2 2 2 1 0 -0 -1 -1 -1 -1 -1 0 0 0 0 0 -0 -1 -1 -1 -1 -1 -1 -1 -0 -0 0 1 1 1 2 2 3 3 3 3 5 6 4 1 0
3 3 2 2 2 2 1 1 -0 -0 -1 -1 -1 -0 0 0 1 1 1 0 -0 -0 -1 -1 -1 -1 -0 -0 -0 -0 1 1 1 1 2 3 4 4 5 5 5 4 3
3 3 3 3 3 2 1 1 -0 0 -0 -0 -0 -0 -0 -0 0 0 1 1 1 0 -0 -1 -0 -0 -1 -1 -1 0 1 1 2 2 2 2 2 2 3 3 4 5 4
3 3 3 3 3 2 2 1 0 0 -0 -0 -0 -1 -0 0 0 0 1 1 1 0 -0 -0 -0 -0 -1 -0 -0 0 1 1 1 2 2 2 2 2 2 3 4 5 5
3 4 4 4 3 3 1 0 0 0 0 0 -0 -0 -0 -0 0 0 2 2 2 3 2 -0 0 1 0 0 -0 1 1 1 1 3 4 4 5 4 3 2 2 4 6
5 5 4 3 2 1 0 0 0 0 0 -0 -0 0 -0 -0 1 1 3 3 4 4 4 2 2 2 1 1 0 2 4 5 5 5 6 6 6 5 4 4 3 3 3
4 4 3 1 1 1 1 0 0 0 0 0 -0 0 0 1 2 2 3 4 4 5 5 4 3 3 3 2 2 3 5 6 7 8 8 8 8 8 7 6 5 4 2
3 2 2 1 1 1 1 1 1 1 0 -0 1 2 2 3 4 4 4 5 5 5 5 5 4 4 3 4 5 5 4 6 6 5 7 8 8 9 8 7 7 6 5
2 2 2 2 2 1 2 1 1 1 0 1 2 2 2 4 6 5 4 4 5 6 6 5 5 5 4 5 5 6 6 6 6 4 5 6 8 8 9 9 8 7 7
3 2 2 2 2 1 1 1 1 1 1 2 1 2 5 5 5 3 2 2 2 2 3 4 4 4 4 5 7 7 8 7 7 6 5 6 7 8 8 8 8 8 8
3 3 3 2 2 2 1 1 1 1 2 2 3 3 4 4 4 3 3 2 2 3 4 4 4 5 6 6 8 8 9 8 8 7 7 5 5 6 7 7 7 7 8
3 3 2 2 2 2 1 2 1 3 2 2 1 2 3 3 4 4 3 3 4 4 5 5 5 6 7 7 7 7 7 6 5 5 6 6 7 6 7 8 8 8 8
4 3 3 3 2 1 1 2 3 4 2 1 1 3 3 4 4 3 3 4 5 5 5 5 5 5 6 7 7 7 6 6 6 6 6 7 7 6 6 9 8 8 8
3 3 3 2 1 1 1 4 4 3 2 2 3 3 4 5 5 3 4 4 4 5 5 4 5 5 6 7 7 6 6 6 6 6 7 6 6 7 6 5 5 4 4
3 3 2 2 1 1 2 4 4 2 2 3 3 4 5 5 3 4 4 4 5 5 4 4 5 5 5 6 6 6 5 5 5 4 5 4 4 7 7 4 5 4 5
4 3 3 2 1 1 3 3 2 2 3 3 3 4 4 4 5 5 4 5 4 4 4 4 4 5 4 7 7 6 4 4 5 4 4 6 6 7 7 4 4 5 4
3 2 2 1 2 2 2 2 2 3 3 3 3 4 4 4 4 4 5 6 6 5 5 5 4 4 5 5 7 7 4 5 4 4 4 4 6 7 7 6 4 4 5
3 3 2 3 1 1 1 2 3 3 3 3 3 4 5 4 3 4 4 5 5 6 5 6 6 6 5 7 7 8 8 6 5 6 4 4 7 7 7 5 7 6 5
3 3 2 3 1 1 1 2 2 2 4 3 4 5 5 4 3 4 5 6 5 5 5 6 7 6 6 6 7 7 7 6 4 4 5 6 6 6 5 6 6 5 5
2 3 3 2 2 1 2 2 2 2 4 3 4 5 5 4 4 4 4 6 6 6 6 7 7 7 7 6 6 4 4 5 4 4 3 4 5 6 5 4 4 5 4
3 2 2 2 2 1 1 1 2 2 4 4 4 4 4 4 4 3 3 5 6 8 8 8 6 7 8 8 8 6 5 4 4 4 3 4 5 5 5 6 4 5 5
2 1 2 2 2 1 2 2 2 2 3 3 4 4 4 4 4 5 4 8 8 9 10 10 9 5 9 10 9 9 9 9 8 6 6 7 7 7 6 6 7 6 6

GFSMW_con_lsi_345.txt.gz
Lid_Strength_Index
2 2 1 1 0 0 -0 -0 -0 -1 -0 0 0 0 1 0 -0 -1 -2 -2 -2 -2 -1 -0 -1 -0 1 1 0 1 1 1 1 2 2 1 0 1 0 0 0 0 -0
3 2 1 1 1 0 0 -0 -0 -1 -1 -0 -0 -0 0 -0 -0 -1 -1 -2 -2 -2 -1 -1 -0 -0 0 1 1 1 2 2 1 3 3 5 3 2 1 0 1 1 0
4 3 2 2 1 1 0 0 -0 -1 -1 -1 -1 -0 -1 -0 0 -0 -0 -1 -1 -1 -1 -1 -0 -0 -0 1 0 1 2 3 1 1 3 5 6 3 1 1 1 1 1
3 3 2 2 1 1 0 0 -1 -1 -1 -1 -0 0 1 1 1 0 -0 -0 -1 -1 -1 -1 -1 -0 -1 0 0 0 1 1 3 2 2 2 2 5 6 3 2 1 1
3 3 2 2 1 1 1 0 -1 -1 -1 -1 -1 0 1 1 0 0 0 -0 -1 -1 -1 -1 -0 -0 -0 -0 0 0 1 1 2 2 2 3 3 3 5 6 4 2 1
3 3 2 2 2 2 1 0 -0 -1 -1 -1 -1 0 1 1 1 1 1 1 0 0 -0 -0 -0 -0 -0 0 -0 -0 0 1 1 1 2 3 4 4 4 5 5 4 3
4 3 3 2 3 3 2 2 0 0 -0 -0 -0 0 0 0 1 1 1 1 1 1 1 1 -0 -0 -0 -0 -0 0 0 0 1 2 2 2 2 2 3 4 4 5 4
3 3 3 3 3 3 2 1 0 0 0 1 1 0 -0 1 0 1 2 3 4 3 3 2 1 -0 -0 -0 -0 -0 0 1 2 3 4 4 5 4 2 3 4 7 6
3 3 2 2 3 2 1 0 1 1 1 1 0 0 0 0 1 1 2 2 4 4 4 3 3 1 1 0 0 1 2 5 6 6 7 6 6 5 4 3 2 4 6
3 2 2 2 1 1 0 1 0 1 1 0 0 0 0 1 1 2 2 3 4 5 5 5 4 3 2 2 2 3 4 5 5 6 6 7 8 7 6 5 3 5 4
3 2 2 1 1 1 1 1 1 1 1 0 0 0 0 1 2 2 3 3 3 5 6 5 5 3 3 4 4 4 5 5 5 5 6 7 7 8 7 7 6 7 6
2 2 2 2 2 1 2 1 1 1 0 1 0 0 2 3 4 3 2 2 3 3 4 5 5 4 4 5 6 6 6 7 5 6 5 5 4 5 7 7 8 8 7
2 2 2 2 2 2 2 2 1 1 1 0 1 2 3 3 2 2 2 2 2 3 4 4 4 5 5 5 6 7 7 7 6 6 6 6 5 6 5 6 6 7 7
3 3 3 3 2 2 2 1 1 2 1 1 1 1 1 2 2 2 2 3 3 4 4 4 4 5 5 6 6 6 7 8 8 7 5 6 6 6 6 7 6 6 7
3 3 3 3 2 2 2 1 2 2 0 1 1 2 1 1 2 2 3 3 4 4 5 5 5 5 5 6 6 5 6 5 5 5 5 5 5 5 5 6 6 6 6
3 3 3 2 2 2 2 1 3 2 1 1 2 2 4 3 3 3 3 4 4 4 3 4 5 6 6 6 6 5 6 6 5 5 5 5 4 5 7 7 7 7 6
4 4 3 2 2 2 1 3 3 1 1 2 4 5 4 3 4 3 3 4 4 3 3 4 4 5 5 6 6 6 6 6 5 5 5 5 6 6 5 7 7 7 7
3 3 2 2 2 1 2 3 1 1 2 3 4 4 3 4 3 3 4 4 3 3 3 4 4 4 5 6 6 6 4 5 5 5 5 5 5 6 5 5 5 5 5
3 2 2 2 1 1 3 1 2 2 3 4 4 4 4 3 3 4 5 4 4 3 4 3 3 4 4 6 6 5 3 3 3 3 3 3 3 6 6 4 4 3 4
3 2 2 2 1 2 1 2 2 3 4 4 4 4 2 3 4 4 4 4 4 5 4 4 4 4 3 7 7 6 3 3 4 3 3 5 5 6 6 3 3 4 4
3 2 2 2 1 1 2 2 2 3 3 3 4 3 3 3 3 3 3 3 4 5 5 6 5 5 5 5 7 7 4 5 4 4 3 3 6 6 6 5 4 5 4
2 1 2 1 1 1 2 3 3 2 3 3 4 3 3 2 3 3 3 3 4 5 6 5 6 5 5 6 6 7 6 5 3 4 3 4 7 7 6 5 7 6 5
2 1 1 2 2 2 2 2 3 2 3 4 4 3 3 3 3 3 4 4 5 6 6 6 6 5 4 3 5 6 6 5 3 3 5 6 6 7 6 6 6 5 4
2 1 2 3 3 2 2 2 2 2 3 4 4 3 3 3 2 3 3 4 5 6 6 7 7 6 5 4 3 3 2 4 4 4 4 5 6 6 5 4 4 4 4
1 1 2 3 2 1 1 2 2 2 3 3 3 3 3 3 3 3 4 4 4 7 6 7 6 7 7 6 8 7 4 5 6 5 5 5 5 6 6 6 5 4 4
1 2 2 2 2 1 1 1 1 3 4 4 3 4 4 3 4 4 3 8 8 9 10 10 8 4 8 10 10 9 9 9 9 4 5 6 7 7 7 6 6 5 5